User: anonymous   Login
Location: Bovenkerk
(52.2915°N, 4.8336°E)
Time: 15:33:02
(UTC+00:00)
Language:

Cosmos 1825 - Orbit

View from above orbital plane
View from above orbital plane
View from above satellite
View from above satellite

Ground track
Ground track

The orbit data is extracted from the following two-line orbital elements,

1 17566U 87024A   21162.84148682  .00000776  00000-0  33856-4 0  9998
2 17566  82.5048 284.8515 0004167 156.1623 203.9806 15.20644643874911
Epoch (UTC): 11 June 2021 20:11:44
Eccentricity: 0.0004167
inclination: 82.5048°
perigee height: 501 km
apogee height: 507 km
right ascension of ascending node: 284.8515°
argument of perigee: 156.1623°
revolutions per day: 15.20644643
mean anomaly at epoch: 203.9806°
orbit number at epoch: 87491

The dashed part of the orbit path shows where the satellite is in the earth's shadow,  

DLR